Location: Dreilärchen
(47.9312°N, 8.6113°E)
Time: 22:06:38
(UTC+00:00)

MOS 1 Rocket - Pass Details

Date: 26 May 2022
Orbit: 615 x 827 km, 97.5° (Epoch: 03 July)

Event Time Altitude Azimuth Distance (km) Brightness Sun altitude
Exits shadow 02:23:24 13° 216° (SW) 1,761 4.7 -10.0°
Maximum altitude 02:26:18 26° 267° (W) 1,235 4.2 -9.6°
Drops below altitude 10° 02:29:55 10° 324° (NW) 1,998 5.8 -9.2°
Sets 02:32:27 0° 337° (NNW) 2,926 6.8 -8.9°
